Regional Weather Roundup
Issued by NWS

Home | Current Version | Previous Version | Graphics & Text | Print | Product List | Glossary Off
Versions: 1 2 3 4 5 6 7 8 9 10 11 12 13 14 15 16 17 18 19 20 21 22 23 24 25 26 27 28 29 30 31 32 33 34 35 36 37 38 39 40 41 42 43 44 45 46 47 48 49 50

000
ASUS43 KLOT 231512
RWRIL

ILLINOIS REGIONAL WEATHER ROUNDUP
NATIONAL WEATHER SERVICE CHICAGO/ROMEOVILLE IL
1000 AM CDT SAT MAY 23 2015

NOTE: "FAIR" INDICATES FEW OR NO CLOUDS BELOW 12,000 FEET WITH NO
SIGNIFICANT WEATHER AND/OR OBSTRUCTIONS TO VISIBILITY.

* THESE STATIONS ARE NOT UNDER NWS QUALITY CONTROL. THEY ALSO MAY NOT
  REPORT WEATHER SUCH AS PRECIPITATION OR FOG.

ILZ001-002-007-009-015-016-024-231600-
NORTHWEST ILLINOIS

CITY           SKY/WX    TMP DP  RH WIND       PRES   REMARKS
MOLINE         SUNNY     71  53  52 S6        30.29F
STERLING*      SUNNY     72  45  37 S3        30.31F
SAVANNA*       SUNNY     67  45  45 W5        30.30F
$$

ILZ003-004-008-010-011-017-018-231600-
NORTH CENTRAL ILLINOIS

CITY           SKY/WX    TMP DP  RH WIND       PRES   REMARKS
ROCKFORD       PTSUNNY   70  43  37 S12       30.34F
FREEPORT*      PTSUNNY   66  42  42 S8        30.33F
ROCHELLE*      SUNNY     69  42  36 S10       30.32F
DE KALB*       SUNNY     66  43  42 S12       30.34F
PERU*          SUNNY     69  42  37 SE6       30.32F
$$

ILZ005-006-012>014-019>023-231600-
NORTHEAST ILLINOIS

CITY           SKY/WX    TMP DP  RH WIND       PRES   REMARKS
CHICAGO-OHARE  MOSUNNY   68  37  32 SE9       30.34S
CHICAGO-MIDWAY MOSUNNY   71  36  27 S13G22    30.34F
AURORA         SUNNY     69  41  36 S14       30.34F
LANSING*       SUNNY     68  38  33 S8        30.36S
JOLIET*        SUNNY     69  46  42 SE6       30.34F
WAUKEGAN       SUNNY     66  39  37 SE9       30.34S
DUPAGE AIRPORT SUNNY     68  41  37 S12       30.33F
KANKAKEE*      SUNNY     70  49  47 SE10      30.35F
WHEELING       SUNNY     69  36  29 S12       30.35F
MORRIS*        SUNNY     70  43  37 SE9       30.32S
ROMEOVILLE*    SUNNY     69  40  35 S12       30.34S
NORTHERLY ISL    N/A     59  45  59 E1          N/A
$$

LMZ740>746-231600-
SOUTHERN LAKE MICHIGAN

STATION/POSITION SKY/WX   TEMP    WIND        PRES    VSBY  WAVE
                          AIR SEA DIR/SP/G                  HT/PER
                          (F)     (DEG/KT/KT) (MB)    (MI)  (FT/S)
SOUTHERN BUOY              43 38  170/  4     1029.0R         0
HARRISON CRIB              57     150/  9/ 11   N/A
BURNHAM HARBOR             59      70/  2/  4   N/A
CALUMET HARBOR             66     150/  5/  7   N/A
BURNS HARBOR               66     170/  9/ 12 1028.4R
MICHIGAN CITY              63     130/ 12/ 14   N/A
MICHIGAN CITY 6N           60 51  180/  2/  6   N/A           1
ST. JOSEPH                 59 53  270/  4/  4   N/A           1
$$

ILZ025>027-034>036-040-047-049-050-058-095>099-231600-
WEST-CENTRAL ILLINOIS

CITY           SKY/WX    TMP DP  RH WIND       PRES   REMARKS
QUINCY         PTSUNNY   69  50  50 S8        30.30F
GALESBURG*     SUNNY     71  50  47 S9        30.31F
MACOMB*        SUNNY     72  49  45 S9        30.33F
JACKSONVILLE*  SUNNY     73  53  49 S10       30.32F
PITTSFIELD*    PTSUNNY   71  53  53 S7        30.32F
$$

ILZ028>032-037-038-041>044-048-051>054-059>061-231600-
CENTRAL ILLINOIS

CITY           SKY/WX    TMP DP  RH WIND       PRES   REMARKS
PONTIAC        SUNNY     73  46  39 CALM      30.33F
BLOOMINGTON    SUNNY     73  50  44 SW10      30.34F
DECATUR        MOSUNNY   74  53  48 S8        30.33F
PEORIA         SUNNY     73  54  51 S7        30.32F
LACON*         SUNNY     72  47  40 CALM      30.31F
LINCOLN*       SUNNY     74  53  46 S6        30.30F
SPRINGFIELD    MOSUNNY   74  54  49 S7        30.33F
TAYLORVILLE    PTSUNNY   68  54  60 S6        30.33F
$$

ILZ033-039-045-046-055>057-062-063-231600-
EAST-CENTRAL ILLINOIS

CITY           SKY/WX    TMP DP  RH WIND       PRES   REMARKS
CHAMPAIGN      SUNNY     75  47  36 VRB5      30.34F
DANVILLE*      SUNNY     71  51  49 S9        30.34S
RANTOUL*       SUNNY     76  50  40 S5        30.34F
MATTOON        PTSUNNY   72  54  53 S8        30.34F
PARIS*         MOSUNNY   75  49  40 SE9       30.36F
$$

ILZ079-100>102-231600-
SOUTHWEST ILLINOIS

CITY           SKY/WX    TMP DP  RH WIND       PRES   REMARKS
ALTON          MOSUNNY   70  52  52 S9        30.33F
BELLEVILLE     PTSUNNY   70  55  59 SE7       30.32S
CAHOKIA*       PTSUNNY   73  51  46 S9        30.33S
SPARTA*        PTSUNNY   69  55  59 S9        30.34S
$$

ILZ064>066-069>071-074>076-080>082-084>086-088>090-092>094-231600-
SOUTH-CENTRAL ILLINOIS

CITY           SKY/WX    TMP DP  RH WIND       PRES   REMARKS
CARBONDALE     SUNNY     72  51  47 SE8       30.34R
CAIRO*         PTSUNNY   71  52  49 SE7       30.33S
EFFINGHAM*     CLOUDY    71  48  44 SE3       30.36S
MARION         MOSUNNY   73  52  46 S6        30.35R
MT. VERNON     CLOUDY    73  54  49 E7        30.35S
CENTRALIA*     MOSUNNY   75  49  40 S6        30.34S
SALEM*         MOSUNNY   74  52  45 S7        30.35S
METROPOLIS*    PTSUNNY   70  52  52 SE7       30.32F
$$

ILZ067-068-072-073-078-083-087-091-231600-
SOUTHEAST ILLINOIS

CITY           SKY/WX    TMP DP  RH WIND       PRES   REMARKS
LAWRENCEVILLE  MOSUNNY   71  55  56 S5        30.36F
FLORA*         MOSUNNY   71  54  54 S3        30.35F
FAIRFIELD*     PTSUNNY   71  55  56 SE6       30.34S
HARRISBURG*    MOSUNNY   72  56  57 E8        30.35F
ROBINSON*      PTSUNNY   72  52  49 S3        30.37F
CARMI*         PTSUNNY   72  51  47 SE7       30.35S
$$

ABBREVIATIONS USED IN REMARKS
   TC - TEMPERATURE IN CELSIUS
  WCI - WIND CHILL INDEX
   HX - HEAT INDEX
  VSB - VISIBILITY
$$




USA.gov is the U.S. government's official web portal to all federal, state and local government web resources and services.